ELEKTRON 3 DEB, 831

Orbit data source: Space-Track

ELEKTRON 3 DEB, 831 is space debris in LEO originally from a launch on Fri, 10 Jul 1964 UTC launched from the Tyuratam Missile And Space Complex (TTMTR). Debris objects in space refer to the collection of defunct objects orbiting the Earth. Examples of debris include non-operational satellites, rocket bodies, and fragments generated from explosions, collisions, or faulty payload assembly.

Loading next visibility...
Identifier
831, 1964-038C
Orbit
LEO
Last TLE update
19 hours ago
Origin
Manufacturer
OKB-1
Mission
Spacecraft
Bus & Motor
ADAPTER, Unknown motor
Mass
Unknown
Launch date (UTC)
1964-07-10 (61 years ago)
Launch vehicle
Unknown
Launch site
Tyuratam Missile And Space Complex (TTMTR)
Object type
Payload
Rocket body
Debris
Shape & HBR
Unknown
Radar Cross Section
Medium (>0.1 m² and <1 m²)

Expand to show TLE details & history

TLE from 19 hours ago
0 ELEKTRON 3 DEB
1 00831U 64038C   25128.43009980  .00018175  00000-0  17019-2 0  9996
2 00831  60.6680 143.8620 1310481 175.6827 185.6895 12.66501116314366
Epoch: 2025-05-08T10:19Z
Definitive object data (Epoch: 2025-05-08T10:19:20.622Z)
Latitude
0.00001°
Longitude
122.52537°
Altitude
2,412.681 km
Speed
6.281 km/s
True Right ascension
09h 35m 26s
True Declination
0° 00' 00"
Sunlit
Object was in daylight at TLE epoch
Visualization TLE readout
Latitude
56.20131°
Longitude
177.13495°
Altitude
1,519.807 km
Speed
7.058 km/s
Apparent Right ascension
05h 22m 08s
Apparent Declination
69° 37' 32"
Sunlit
Object is in daylight
Visualization observer readout
Local Sidereal Time
13:51:57
Azimuth
342.083° N
Elevation
26.049°
Doppler factor
1
Orbital elements
Apogee altitude
2,414.126 km
Perigee altitude
376.707 km
Semi-major axis
7,773.553 km
Eccentricity
0.1310481
Inclination
60.668°
RAAN
143.862°
Arg. of periapsis
175.6827°
True anomaly
184.41042°
Mean anomaly
185.6895°
Eccentric anomaly
185.03104°
Mean motion
3.16675 °/min
BSTAR
0.0017019
Orbital period
113.68 mins
Loading maneuver chart data...
Loading SW <> Apogee altitude chart data...
Loading historical data...
Loading historical data...
Loading historical data...
Loading historical data...
Loading historical data...
Loading historical data...
Loading historical data...

ELEKTRON 3 DEB Visibility forecast

Observer location: undefined°, undefined°

Span
Click to sort rows by Start time (UTC) header in descending order
Start Az.
Max El. time (UTC)
Max El. Az.
Max El.
End time (UTC)
End Az.
5 mins2025-05-09 05:43:14.786Z342.005° N2025-05-09 05:43:14.786Z342.005° N23.715°2025-05-09 05:48:14.786Z22.691° NE
5 mins2025-05-09 07:40:14.786Z333.792° NNW2025-05-09 07:43:14.786Z357.569° N13.655°2025-05-09 07:45:14.786Z16.099° NNE
6 mins2025-05-09 09:40:14.786Z344.305° N2025-05-09 09:44:14.786Z31.998° NE19.371°2025-05-09 09:46:14.786Z62.737° ENE
7 mins2025-05-09 11:38:14.786Z314.45° NW2025-05-09 11:42:14.786Z239.173° WSW40.449°2025-05-09 11:45:14.786Z160.057° S
13 mins2025-05-10 00:19:14.786Z140.826° SSE2025-05-10 00:26:14.786Z106.956° ESE18.442°2025-05-10 00:32:14.786Z73.988° E
22 mins2025-05-10 02:11:14.786Z200.23° SSW2025-05-10 02:23:14.786Z135.41° SSE42.838°2025-05-10 02:33:14.786Z43.393° NE
18 mins2025-05-10 04:12:14.786Z250.833° W2025-05-10 04:22:14.786Z312.363° NW35.444°2025-05-10 04:30:14.786Z26.761° NE
|